Regional Weather Roundup
Issued by NWS Spokane, WA

Current Version | Previous Version | Text Only | Print | Product List | Glossary On
Versions: 1 2 3 4 5 6 7 8 9 10 11 12 13 14 15 16 17 18 19 20 21 22 23 24 25 26 27 28 29 30 31 32 33 34 35 36 37 38 39 40 41 42 43 44 45 46 47 48 49 50
000
NZUS01 KOTX 112325
RWROTX

Eastern Washington/Northern Idaho Roundup
National Weather Service, Spokane WA
300 PM PST MON DEC 11 2017

Note: "fair" indicated few or no clouds below 12,000 feet with no
significant weather and/or obstructions to visibility.

...Northeast Washington and Northern Idaho Panhandle...

CITY           SKY/WX    TMP DP  RH WIND       PRES   REMARKS
Spokane Intl   PTCLDY    29  25  85 S3        30.54S
Spokane Downto PTCLDY    32  24  72 CALM      30.56F
Coeur d Alene  PTCLDY    35  25  66 N8        30.54S WCI  29
Deer Park      CLEAR     31  24  75 S3        30.55F
Sandpoint      PTCLDY    32  23  69 NE5       30.56S WCI  27
Bonners Ferry  FAIR      32  23  69 CALM      30.57S

...Southeast Washington and southern Idaho Panhandle...

CITY           SKY/WX    TMP DP  RH WIND       PRES   REMARKS
Walla Walla    CLOUDY    30  25  81 CALM      30.62S
Pullman/Moscow CLOUDY    27  24  89 W3        30.54F
Lewiston       CLOUDY    30  24  78 CALM      30.60S
Lowell           N/A     33  29  85 CALM      30.57R
Grangeville    FAIR      32  23  69 CALM      30.49S

...Columbia Basin...

CITY           SKY/WX    TMP DP  RH WIND       PRES   REMARKS
Ephrata        CLOUDY    31  21  66 E3        30.62S
Moses Lake     CLOUDY    31  25  78 CALM      30.63S
Pasco          CLOUDY    34  27  75 CALM      30.68S
Richland       CLOUDY    34  28  78 CALM      30.68F
Hermiston      CLOUDY    32  25  75 S6        30.66R WCI  26
Pendleton      CLOUDY    28  24  85 NW7       30.60R WCI  21

...East Slopes Cascades...

CITY           SKY/WX    TMP DP  RH WIND       PRES   REMARKS
The Dalles     CLOUDY    36  25  64 SE5       30.69R
Yakima         CLOUDY    34  24  67 CALM      30.64S
Ellensburg     CLOUDY    30  22  72 MISG      30.59F
Stampede Pass  FOG       20  19  96 NE8       30.43S VSB 1/2 WCI  10
Wenatchee      CLOUDY    30  23  75 SW5       30.62S WCI  25
Omak           CLOUDY    30  26  85 S10       30.61S WCI  21
Sunnyside      CLOUDY    31  26  80 W3        30.66S

...Southern British Columbia...

CITY           SKY/WX    TMP DP  RH WIND       PRES   REMARKS
Penticton      MOCLDY    30  23  74 S15       30.58S WCI  19
Castlegar      CLOUDY    32  25  74 N2        30.61R
Cranbrook      CLOUDY    19  14  79 CALM      30.60S
Osoyoos          N/A     30  25  80 SE6         N/A  WCI  24
Creston          N/A     34  27  75 W3          N/A

...Western Montana...

CITY           SKY/WX    TMP DP  RH WIND       PRES   REMARKS
Kalispell      CLOUDY    24  20  84 SW3       30.59S
Libby            N/A     28  21  74 CALM      30.59F
Missoula       CLOUDY    21  19  92 SW3       30.56S FOG

...Neighboring Cities...

CITY           SKY/WX    TMP DP  RH WIND       PRES   REMARKS
Seattle        PTCLDY    46  37  71 S7        30.37R
Portland       MOSUNNY   42  27  55 SE15      30.43S
Boise          CLOUDY    25  21  85 NW6       30.64S WCI  18
Great Falls    CLOUDY    47  13  25 SW12      30.36F
Calgary        MOCLDY    48  16  27 SW6       30.27F



USA.gov is the U.S. government's official web portal to all federal, state and local government web resources and services.